Year,Month,Day,Hour,Minute,Value (Times are PST for temperature in C)
2016,07,02,00,00,14.90
2016,07,02,00,01,14.90
2016,07,02,00,02,14.90
2016,07,02,00,03,14.90
2016,07,02,00,04,14.90
2016,07,02,00,05,14.90
2016,07,02,00,06,14.90
2016,07,02,00,07,14.90
2016,07,02,00,08,14.90
2016,07,02,00,09,14.90
2016,07,02,00,10,14.90
2016,07,02,00,11,14.90
2016,07,02,00,12,14.90
2016,07,02,00,13,14.90
2016,07,02,00,14,14.90
2016,07,02,00,15,14.90
2016,07,02,00,16,14.90
2016,07,02,00,17,14.90
2016,07,02,00,18,14.90
2016,07,02,00,19,14.90
2016,07,02,00,20,14.90
2016,07,02,00,21,14.90
2016,07,02,00,22,14.90
2016,07,02,00,23,14.90
2016,07,02,00,24,14.90
2016,07,02,00,25,14.90
2016,07,02,00,26,14.90
2016,07,02,00,27,14.90
2016,07,02,00,28,14.90
2016,07,02,00,29,14.90
2016,07,02,00,30,14.90
2016,07,02,00,31,14.90
2016,07,02,00,32,14.90
2016,07,02,00,33,14.90
2016,07,02,00,34,14.90
2016,07,02,00,35,14.90
2016,07,02,00,36,14.90
2016,07,02,00,37,14.90
2016,07,02,00,38,14.90
2016,07,02,00,39,14.90
2016,07,02,00,40,14.90
2016,07,02,00,41,14.90
2016,07,02,00,42,14.90
2016,07,02,00,43,14.80
2016,07,02,00,44,14.80
2016,07,02,00,45,14.80
2016,07,02,00,46,14.80
2016,07,02,00,47,14.80
2016,07,02,00,48,14.80
2016,07,02,00,49,14.80
2016,07,02,00,50,14.80
2016,07,02,00,51,14.80
2016,07,02,00,52,14.80
2016,07,02,00,53,14.80
2016,07,02,00,54,14.80
2016,07,02,00,55,14.80
2016,07,02,00,56,14.80
2016,07,02,00,57,14.80
2016,07,02,00,58,14.80
2016,07,02,00,59,14.80
2016,07,02,01,00,14.80
2016,07,02,01,01,14.80
2016,07,02,01,02,14.80
2016,07,02,01,03,14.80
2016,07,02,01,04,14.80
2016,07,02,01,05,14.80
2016,07,02,01,06,14.80
2016,07,02,01,07,14.80
2016,07,02,01,08,14.80
2016,07,02,01,09,14.80
2016,07,02,01,10,14.80
2016,07,02,01,11,14.80
2016,07,02,01,12,14.80
2016,07,02,01,13,14.80
2016,07,02,01,14,14.80
2016,07,02,01,15,14.80
2016,07,02,01,16,14.80
2016,07,02,01,17,14.80
2016,07,02,01,18,14.80
2016,07,02,01,19,14.80
2016,07,02,01,20,14.80
2016,07,02,01,21,14.80
2016,07,02,01,22,14.80
2016,07,02,01,23,14.80
2016,07,02,01,24,14.80
2016,07,02,01,25,14.80
2016,07,02,01,26,14.80
2016,07,02,01,27,14.80
2016,07,02,01,28,14.80
2016,07,02,01,29,14.80
2016,07,02,01,30,14.80
2016,07,02,01,31,14.80
2016,07,02,01,32,14.80
2016,07,02,01,33,14.80
2016,07,02,01,34,14.80
2016,07,02,01,35,14.80
2016,07,02,01,36,14.80
2016,07,02,01,37,14.80
2016,07,02,01,38,14.80
2016,07,02,01,39,14.80
2016,07,02,01,40,14.80
2016,07,02,01,41,14.80
2016,07,02,01,42,14.80
2016,07,02,01,43,14.80
2016,07,02,01,44,14.90
2016,07,02,01,45,14.90
2016,07,02,01,46,14.90
2016,07,02,01,47,14.90
2016,07,02,01,48,14.90
2016,07,02,01,49,14.90
2016,07,02,01,50,14.90
2016,07,02,01,51,14.90
2016,07,02,01,52,14.90
2016,07,02,01,53,14.80
2016,07,02,01,54,14.80
2016,07,02,01,55,14.80
2016,07,02,01,56,14.80
2016,07,02,01,57,14.80
2016,07,02,01,58,14.80
2016,07,02,01,59,14.80
2016,07,02,02,00,14.80
2016,07,02,02,01,14.80
2016,07,02,02,02,14.90
2016,07,02,02,03,14.90
2016,07,02,02,04,14.90
2016,07,02,02,05,14.90
2016,07,02,02,06,14.90
2016,07,02,02,07,14.90
2016,07,02,02,08,14.90
2016,07,02,02,09,14.90
2016,07,02,02,10,14.90
2016,07,02,02,11,14.80
2016,07,02,02,12,14.80
2016,07,02,02,13,14.80
2016,07,02,02,14,14.80
2016,07,02,02,15,14.80
2016,07,02,02,16,14.80
2016,07,02,02,17,14.80
2016,07,02,02,18,14.80
2016,07,02,02,19,14.80
2016,07,02,02,20,14.80
2016,07,02,02,21,14.80
2016,07,02,02,22,14.80
2016,07,02,02,23,14.80
2016,07,02,02,24,14.80
2016,07,02,02,25,14.80
2016,07,02,02,26,14.80
2016,07,02,02,27,14.80
2016,07,02,02,28,14.80
2016,07,02,02,29,14.80
2016,07,02,02,30,14.80
2016,07,02,02,31,14.80
2016,07,02,02,32,14.80
2016,07,02,02,33,14.80
2016,07,02,02,34,14.80
2016,07,02,02,35,14.70
2016,07,02,02,36,14.70
2016,07,02,02,37,14.70
2016,07,02,02,38,14.70
2016,07,02,02,39,14.70
2016,07,02,02,40,14.70
2016,07,02,02,41,14.70
2016,07,02,02,42,14.70
2016,07,02,02,43,14.70
2016,07,02,02,44,14.70
2016,07,02,02,45,14.70
2016,07,02,02,46,14.70
2016,07,02,02,47,14.70
2016,07,02,02,48,14.70
2016,07,02,02,49,14.70
2016,07,02,02,50,14.70
2016,07,02,02,51,14.70
2016,07,02,02,52,14.70
2016,07,02,02,53,14.70
2016,07,02,02,54,14.70
2016,07,02,02,55,14.70
2016,07,02,02,56,14.70
2016,07,02,02,57,14.70
2016,07,02,02,58,14.70
2016,07,02,02,59,14.70
2016,07,02,03,00,14.70
2016,07,02,03,01,14.70
2016,07,02,03,02,14.70
2016,07,02,03,03,14.70
2016,07,02,03,04,14.70
2016,07,02,03,05,14.70
2016,07,02,03,06,14.70
2016,07,02,03,07,14.70
2016,07,02,03,08,14.70
2016,07,02,03,09,14.70
2016,07,02,03,10,14.70
2016,07,02,03,11,14.70
2016,07,02,03,12,14.70
2016,07,02,03,13,14.70
2016,07,02,03,14,14.70
2016,07,02,03,15,14.70
2016,07,02,03,16,14.70
2016,07,02,03,17,14.70
2016,07,02,03,18,14.70
2016,07,02,03,19,14.70
2016,07,02,03,20,14.70
2016,07,02,03,21,14.70
2016,07,02,03,22,14.70
2016,07,02,03,23,14.70
2016,07,02,03,24,14.70
2016,07,02,03,25,14.70
2016,07,02,03,26,14.70
2016,07,02,03,27,14.60
2016,07,02,03,28,14.60
2016,07,02,03,29,14.60
2016,07,02,03,30,14.60
2016,07,02,03,31,14.60
2016,07,02,03,32,14.60
2016,07,02,03,33,14.60
2016,07,02,03,34,14.60
2016,07,02,03,35,14.60
2016,07,02,03,36,14.60
2016,07,02,03,37,14.60
2016,07,02,03,38,14.60
2016,07,02,03,39,14.60
2016,07,02,03,40,14.60
2016,07,02,03,41,14.60
2016,07,02,03,42,14.60
2016,07,02,03,43,14.60
2016,07,02,03,44,14.60
2016,07,02,03,45,14.60
2016,07,02,03,46,14.60
2016,07,02,03,47,14.60
2016,07,02,03,48,14.60
2016,07,02,03,49,14.50
2016,07,02,03,50,14.50
2016,07,02,03,51,14.50
2016,07,02,03,52,14.50
2016,07,02,03,53,14.50
2016,07,02,03,54,14.50
2016,07,02,03,55,14.50
2016,07,02,03,56,14.50
2016,07,02,03,57,14.50
2016,07,02,03,58,14.50
2016,07,02,03,59,14.50
2016,07,02,04,00,14.40
2016,07,02,04,01,14.40
2016,07,02,04,02,14.40
2016,07,02,04,03,14.40
2016,07,02,04,04,14.40
2016,07,02,04,05,14.40
2016,07,02,04,06,14.40
2016,07,02,04,07,14.40
2016,07,02,04,08,14.40
2016,07,02,04,09,14.40
2016,07,02,04,10,14.40
2016,07,02,04,11,14.40
2016,07,02,04,12,14.40
2016,07,02,04,13,14.40
2016,07,02,04,14,14.40
2016,07,02,04,15,14.40
2016,07,02,04,16,14.40
2016,07,02,04,17,14.40
2016,07,02,04,18,14.40
2016,07,02,04,19,14.40
2016,07,02,04,20,14.40
2016,07,02,04,21,14.40
2016,07,02,04,22,14.40
2016,07,02,04,23,14.40
2016,07,02,04,24,14.40
2016,07,02,04,25,14.40
2016,07,02,04,26,14.40
2016,07,02,04,27,14.40
2016,07,02,04,28,14.40
2016,07,02,04,29,14.40
2016,07,02,04,30,14.40
2016,07,02,04,31,14.50
2016,07,02,04,32,14.50
2016,07,02,04,33,14.50
2016,07,02,04,34,14.50
2016,07,02,04,35,14.50
2016,07,02,04,36,14.50
2016,07,02,04,37,14.40
2016,07,02,04,38,14.40
2016,07,02,04,39,14.40
2016,07,02,04,40,14.40
2016,07,02,04,41,14.40
2016,07,02,04,42,14.40
2016,07,02,04,43,14.40
2016,07,02,04,44,14.40
2016,07,02,04,45,14.40
2016,07,02,04,46,14.30
2016,07,02,04,47,14.30
2016,07,02,04,48,14.30
2016,07,02,04,49,14.30
2016,07,02,04,50,14.30
2016,07,02,04,51,14.30
2016,07,02,04,52,14.30
2016,07,02,04,53,14.30
2016,07,02,04,54,14.30
2016,07,02,04,55,14.30
2016,07,02,04,56,14.30
2016,07,02,04,57,14.30
2016,07,02,04,58,14.30
2016,07,02,04,59,14.30
2016,07,02,05,00,14.30
2016,07,02,05,01,14.30
2016,07,02,05,02,14.30
2016,07,02,05,03,14.30
2016,07,02,05,04,14.30
2016,07,02,05,05,14.40
2016,07,02,05,06,14.40
2016,07,02,05,07,14.40
2016,07,02,05,08,14.40
2016,07,02,05,09,14.40
2016,07,02,05,10,14.40
2016,07,02,05,11,14.40
2016,07,02,05,12,14.50
2016,07,02,05,13,14.50
2016,07,02,05,14,14.50
2016,07,02,05,15,14.50
2016,07,02,05,16,14.50
2016,07,02,05,17,14.50
2016,07,02,05,18,14.50
2016,07,02,05,19,14.40
2016,07,02,05,20,14.40
2016,07,02,05,21,14.40
2016,07,02,05,22,14.40
2016,07,02,05,23,14.40
2016,07,02,05,24,14.40
2016,07,02,05,25,14.40
2016,07,02,05,26,14.40
2016,07,02,05,27,14.30
2016,07,02,05,28,14.30
2016,07,02,05,29,14.30
2016,07,02,05,30,14.30
2016,07,02,05,31,14.30
2016,07,02,05,32,14.30
2016,07,02,05,33,14.30
2016,07,02,05,34,14.30
2016,07,02,05,35,14.30
2016,07,02,05,36,14.30
2016,07,02,05,37,14.30
2016,07,02,05,38,14.30
2016,07,02,05,39,14.30
2016,07,02,05,40,14.30
2016,07,02,05,41,14.30
2016,07,02,05,42,14.30
2016,07,02,05,43,14.30
2016,07,02,05,44,14.30
2016,07,02,05,45,14.30
2016,07,02,05,46,14.30
2016,07,02,05,47,14.30
2016,07,02,05,48,14.30
2016,07,02,05,49,14.30
2016,07,02,05,50,14.30
2016,07,02,05,51,14.20
2016,07,02,05,52,14.20
2016,07,02,05,53,14.20
2016,07,02,05,54,14.20
2016,07,02,05,55,14.20
2016,07,02,05,56,14.20
2016,07,02,05,57,14.20
2016,07,02,05,58,14.20
2016,07,02,05,59,14.20
2016,07,02,06,00,14.20
2016,07,02,06,01,14.30
2016,07,02,06,02,14.30
2016,07,02,06,03,14.30
2016,07,02,06,04,14.30
2016,07,02,06,05,14.30
2016,07,02,06,06,14.30
2016,07,02,06,07,14.30
2016,07,02,06,08,14.30
2016,07,02,06,09,14.30
2016,07,02,06,10,14.40
2016,07,02,06,11,14.40
2016,07,02,06,12,14.40
2016,07,02,06,13,14.40
2016,07,02,06,14,14.40
2016,07,02,06,15,14.40
2016,07,02,06,16,14.40
2016,07,02,06,17,14.40
2016,07,02,06,18,14.50
2016,07,02,06,19,14.50
2016,07,02,06,20,14.50
2016,07,02,06,21,14.50
2016,07,02,06,22,14.50
2016,07,02,06,23,14.50
2016,07,02,06,24,14.50
2016,07,02,06,25,14.50
2016,07,02,06,26,14.50
2016,07,02,06,27,14.50
2016,07,02,06,28,14.50
2016,07,02,06,29,14.50
2016,07,02,06,30,14.40
2016,07,02,06,31,14.40
2016,07,02,06,32,14.40
2016,07,02,06,33,14.40
2016,07,02,06,34,14.40
2016,07,02,06,35,14.40
2016,07,02,06,36,14.40
2016,07,02,06,37,14.40
2016,07,02,06,38,14.40
2016,07,02,06,39,14.40
2016,07,02,06,40,14.40
2016,07,02,06,41,14.40
2016,07,02,06,42,14.40
2016,07,02,06,43,14.40
2016,07,02,06,44,14.40
2016,07,02,06,45,14.40
2016,07,02,06,46,14.40
2016,07,02,06,47,14.40
2016,07,02,06,48,14.40
2016,07,02,06,49,14.40
2016,07,02,06,50,14.40
2016,07,02,06,51,14.40
2016,07,02,06,52,14.40
2016,07,02,06,53,14.50
2016,07,02,06,54,14.50
2016,07,02,06,55,14.50
2016,07,02,06,56,14.50
2016,07,02,06,57,14.60
2016,07,02,06,58,14.60
2016,07,02,06,59,14.60
2016,07,02,07,00,14.60
2016,07,02,07,01,14.70
2016,07,02,07,02,14.70
2016,07,02,07,03,14.70
2016,07,02,07,04,14.80
2016,07,02,07,05,14.80
2016,07,02,07,06,14.90
2016,07,02,07,07,14.90
2016,07,02,07,08,14.90
2016,07,02,07,09,15.00
2016,07,02,07,10,15.10
2016,07,02,07,11,15.10
2016,07,02,07,12,15.20
2016,07,02,07,13,15.20
2016,07,02,07,14,15.30
2016,07,02,07,15,15.30
2016,07,02,07,16,15.30
2016,07,02,07,17,15.40
2016,07,02,07,18,15.40
2016,07,02,07,19,15.40
2016,07,02,07,20,15.50
2016,07,02,07,21,15.50
2016,07,02,07,22,15.60
2016,07,02,07,23,15.60
2016,07,02,07,24,15.70
2016,07,02,07,25,15.70
2016,07,02,07,26,15.70
2016,07,02,07,27,15.80
2016,07,02,07,28,15.80
2016,07,02,07,29,15.80
2016,07,02,07,30,15.80
2016,07,02,07,31,15.80
2016,07,02,07,32,15.80
2016,07,02,07,33,15.80
2016,07,02,07,34,15.80
2016,07,02,07,35,15.80
2016,07,02,07,36,15.80
2016,07,02,07,37,15.90
2016,07,02,07,38,15.90
2016,07,02,07,39,16.00
2016,07,02,07,40,16.00
2016,07,02,07,41,16.10
2016,07,02,07,42,16.10
2016,07,02,07,43,16.10
2016,07,02,07,44,16.20
2016,07,02,07,45,16.20
2016,07,02,07,46,16.30
2016,07,02,07,47,16.40
2016,07,02,07,48,16.50
2016,07,02,07,49,16.50
2016,07,02,07,50,16.70
2016,07,02,07,51,16.70
2016,07,02,07,52,16.80
2016,07,02,07,53,16.90
2016,07,02,07,54,16.90
2016,07,02,07,55,17.00
2016,07,02,07,56,17.00
2016,07,02,07,57,17.10
2016,07,02,07,58,17.20
2016,07,02,07,59,17.30
2016,07,02,08,00,17.40
2016,07,02,08,01,17.50
2016,07,02,08,02,17.60
2016,07,02,08,03,17.60
2016,07,02,08,04,17.60
2016,07,02,08,05,17.60
2016,07,02,08,06,17.60
2016,07,02,08,07,17.60
2016,07,02,08,08,17.70
2016,07,02,08,09,17.70
2016,07,02,08,10,17.70
2016,07,02,08,11,17.70
2016,07,02,08,12,17.80
2016,07,02,08,13,17.80
2016,07,02,08,14,17.80
2016,07,02,08,15,17.80
2016,07,02,08,16,17.80
2016,07,02,08,17,17.80
2016,07,02,08,18,17.80
2016,07,02,08,19,17.80
2016,07,02,08,20,17.80
2016,07,02,08,21,17.80
2016,07,02,08,22,17.70
2016,07,02,08,23,17.70
2016,07,02,08,24,17.60
2016,07,02,08,25,17.60
2016,07,02,08,26,17.60
2016,07,02,08,27,17.60
2016,07,02,08,28,17.60
2016,07,02,08,29,17.60
2016,07,02,08,30,17.60
2016,07,02,08,31,17.60
2016,07,02,08,32,17.70
2016,07,02,08,33,17.80
2016,07,02,08,34,17.90
2016,07,02,08,35,18.00
2016,07,02,08,36,18.10
2016,07,02,08,37,18.20
2016,07,02,08,38,18.30
2016,07,02,08,39,18.40
2016,07,02,08,40,18.50
2016,07,02,08,41,18.60
2016,07,02,08,42,18.70
2016,07,02,08,43,18.80
2016,07,02,08,44,18.80
2016,07,02,08,45,18.80
2016,07,02,08,46,18.80
2016,07,02,08,47,18.80
2016,07,02,08,48,18.80
2016,07,02,08,49,18.80
2016,07,02,08,50,18.80
2016,07,02,08,51,18.70
2016,07,02,08,52,18.60
2016,07,02,08,53,18.60
2016,07,02,08,54,18.50
2016,07,02,08,55,18.50
2016,07,02,08,56,18.40
2016,07,02,08,57,18.40
2016,07,02,08,58,18.30
2016,07,02,08,59,18.30
2016,07,02,09,00,18.30
2016,07,02,09,01,18.30
2016,07,02,09,02,18.20
2016,07,02,09,03,18.20
2016,07,02,09,04,18.20
2016,07,02,09,05,18.10
2016,07,02,09,06,18.00
2016,07,02,09,07,17.90
2016,07,02,09,08,17.90
2016,07,02,09,09,17.80
2016,07,02,09,10,17.80
2016,07,02,09,11,17.70
2016,07,02,09,12,17.70
2016,07,02,09,13,17.70
2016,07,02,09,14,17.70
2016,07,02,09,15,17.60
2016,07,02,09,16,17.60
2016,07,02,09,17,17.60
2016,07,02,09,18,17.60
2016,07,02,09,19,17.50
2016,07,02,09,20,17.50
2016,07,02,09,21,17.50
2016,07,02,09,22,17.50
2016,07,02,09,23,17.50
2016,07,02,09,24,17.50
2016,07,02,09,25,17.50
2016,07,02,09,26,17.50
2016,07,02,09,27,17.50
2016,07,02,09,28,17.50
2016,07,02,09,29,17.50
2016,07,02,09,30,17.50
2016,07,02,09,31,17.50
2016,07,02,09,32,17.50
2016,07,02,09,33,17.50
2016,07,02,09,34,17.50
2016,07,02,09,35,17.50
2016,07,02,09,36,17.50
2016,07,02,09,37,17.50
2016,07,02,09,38,17.50
2016,07,02,09,39,17.60
2016,07,02,09,40,17.60
2016,07,02,09,41,17.70
2016,07,02,09,42,17.70
2016,07,02,09,43,17.80
2016,07,02,09,44,17.90
2016,07,02,09,45,18.10
2016,07,02,09,46,18.20
2016,07,02,09,47,18.30
2016,07,02,09,48,18.50
2016,07,02,09,49,18.60
2016,07,02,09,50,18.70
2016,07,02,09,51,18.80
2016,07,02,09,52,19.00
2016,07,02,09,53,19.10
2016,07,02,09,54,19.20
2016,07,02,09,55,19.20
2016,07,02,09,56,19.30
2016,07,02,09,57,19.40
2016,07,02,09,58,19.40
2016,07,02,09,59,19.40
2016,07,02,10,00,19.40
2016,07,02,10,01,19.40
2016,07,02,10,02,19.30
2016,07,02,10,03,19.30
2016,07,02,10,04,19.30
2016,07,02,10,05,19.20
2016,07,02,10,06,19.20
2016,07,02,10,07,19.20
2016,07,02,10,08,19.10
2016,07,02,10,09,19.10
2016,07,02,10,10,19.00
2016,07,02,10,11,19.00
2016,07,02,10,12,19.00
2016,07,02,10,13,18.90
2016,07,02,10,14,18.90
2016,07,02,10,15,18.90
2016,07,02,10,16,18.90
2016,07,02,10,17,18.80
2016,07,02,10,18,18.80
2016,07,02,10,19,18.80
2016,07,02,10,20,18.80
2016,07,02,10,21,18.80
2016,07,02,10,22,18.80
2016,07,02,10,23,18.80
2016,07,02,10,24,18.80
2016,07,02,10,25,18.80
2016,07,02,10,26,18.80
2016,07,02,10,27,18.80
2016,07,02,10,28,18.80
2016,07,02,10,29,18.80
2016,07,02,10,30,18.90
2016,07,02,10,31,18.90
2016,07,02,10,32,18.90
2016,07,02,10,33,18.90
2016,07,02,10,34,18.90
2016,07,02,10,35,18.90
2016,07,02,10,36,19.00
2016,07,02,10,37,19.00
2016,07,02,10,38,19.00
2016,07,02,10,39,19.10
2016,07,02,10,40,19.20
2016,07,02,10,41,19.20
2016,07,02,10,42,19.30
2016,07,02,10,43,19.40
2016,07,02,10,44,19.60
2016,07,02,10,45,19.70
2016,07,02,10,46,19.90
2016,07,02,10,47,20.10
2016,07,02,10,48,20.20
2016,07,02,10,49,20.30
2016,07,02,10,50,20.40
2016,07,02,10,51,20.50
2016,07,02,10,52,20.50
2016,07,02,10,53,20.60
2016,07,02,10,54,20.60
2016,07,02,10,55,20.60
2016,07,02,10,56,20.70
2016,07,02,10,57,20.70
2016,07,02,10,58,20.70
2016,07,02,10,59,20.80
2016,07,02,11,00,20.80
2016,07,02,11,01,20.80
2016,07,02,11,02,20.80
2016,07,02,11,03,20.80
2016,07,02,11,04,20.80
2016,07,02,11,05,20.70
2016,07,02,11,06,20.70
2016,07,02,11,07,20.70
2016,07,02,11,08,20.70
2016,07,02,11,09,20.70
2016,07,02,11,10,20.70
2016,07,02,11,11,20.70
2016,07,02,11,12,20.80
2016,07,02,11,13,20.80
2016,07,02,11,14,20.80
2016,07,02,11,15,20.80
2016,07,02,11,16,20.80
2016,07,02,11,17,20.80
2016,07,02,11,18,20.70
2016,07,02,11,19,20.70
2016,07,02,11,20,20.70
2016,07,02,11,21,20.70
2016,07,02,11,22,20.80
2016,07,02,11,23,20.80
2016,07,02,11,24,20.80
2016,07,02,11,25,20.90
2016,07,02,11,26,20.90
2016,07,02,11,27,20.80
2016,07,02,11,28,20.80
2016,07,02,11,29,20.80
2016,07,02,11,30,20.70
2016,07,02,11,31,20.70
2016,07,02,11,32,20.70
2016,07,02,11,33,20.70
2016,07,02,11,34,20.70
2016,07,02,11,35,20.70
2016,07,02,11,36,20.70
2016,07,02,11,37,20.70
2016,07,02,11,38,20.70
2016,07,02,11,39,20.80
2016,07,02,11,40,20.90
2016,07,02,11,41,20.90
2016,07,02,11,42,21.00
2016,07,02,11,43,21.00
2016,07,02,11,44,21.10
2016,07,02,11,45,21.10
2016,07,02,11,46,21.20
2016,07,02,11,47,21.20
2016,07,02,11,48,21.20
2016,07,02,11,49,21.20
2016,07,02,11,50,21.30
2016,07,02,11,51,21.40
2016,07,02,11,52,21.40
2016,07,02,11,53,21.50
2016,07,02,11,54,21.50
2016,07,02,11,55,21.60
2016,07,02,11,56,21.60
2016,07,02,11,57,21.60
2016,07,02,11,58,21.50
2016,07,02,11,59,21.50
2016,07,02,12,00,21.50
2016,07,02,12,01,21.50
2016,07,02,12,02,21.60
2016,07,02,12,03,21.60
2016,07,02,12,04,21.60
2016,07,02,12,05,21.60
2016,07,02,12,06,21.70
2016,07,02,12,07,21.70
2016,07,02,12,08,21.80
2016,07,02,12,09,21.70
2016,07,02,12,10,21.70
2016,07,02,12,11,21.70
2016,07,02,12,12,21.70
2016,07,02,12,13,21.70
2016,07,02,12,14,21.70
2016,07,02,12,15,21.70
2016,07,02,12,16,21.70
2016,07,02,12,17,21.80
2016,07,02,12,18,21.80
2016,07,02,12,19,21.80
2016,07,02,12,20,21.90
2016,07,02,12,21,22.00
2016,07,02,12,22,22.00
2016,07,02,12,23,22.10
2016,07,02,12,24,22.10
2016,07,02,12,25,22.10
2016,07,02,12,26,22.20
2016,07,02,12,27,22.20
2016,07,02,12,28,22.10
2016,07,02,12,29,22.10
2016,07,02,12,30,22.10
2016,07,02,12,31,22.10
2016,07,02,12,32,22.10
2016,07,02,12,33,22.10
2016,07,02,12,34,22.10
2016,07,02,12,35,22.10
2016,07,02,12,36,22.20
2016,07,02,12,37,22.30
2016,07,02,12,38,22.40
2016,07,02,12,39,22.50
2016,07,02,12,40,22.60
2016,07,02,12,41,22.60
2016,07,02,12,42,22.60
2016,07,02,12,43,22.60
2016,07,02,12,44,22.60
2016,07,02,12,45,22.60
2016,07,02,12,46,22.60
2016,07,02,12,47,22.60
2016,07,02,12,48,22.70
2016,07,02,12,49,22.70
2016,07,02,12,50,22.80
2016,07,02,12,51,22.80
2016,07,02,12,52,22.70
2016,07,02,12,53,22.80
2016,07,02,12,54,22.70
2016,07,02,12,55,22.70
2016,07,02,12,56,22.70
2016,07,02,12,57,22.70
2016,07,02,12,58,22.70
2016,07,02,12,59,22.60
2016,07,02,13,00,22.50
2016,07,02,13,01,22.50
2016,07,02,13,02,22.40
2016,07,02,13,03,22.40
2016,07,02,13,04,22.30
2016,07,02,13,05,22.30
2016,07,02,13,06,22.30
2016,07,02,13,07,22.30
2016,07,02,13,08,22.30
2016,07,02,13,09,22.30
2016,07,02,13,10,22.40
2016,07,02,13,11,22.50
2016,07,02,13,12,22.60
2016,07,02,13,13,22.70
2016,07,02,13,14,22.70
2016,07,02,13,15,22.70
2016,07,02,13,16,22.70
2016,07,02,13,17,22.60
2016,07,02,13,18,22.60
2016,07,02,13,19,22.60
2016,07,02,13,20,22.60
2016,07,02,13,21,22.60
2016,07,02,13,22,22.70
2016,07,02,13,23,22.70
2016,07,02,13,24,22.70
2016,07,02,13,25,22.70
2016,07,02,13,26,22.70
2016,07,02,13,27,22.60
2016,07,02,13,28,22.60
2016,07,02,13,29,22.60
2016,07,02,13,30,22.60
2016,07,02,13,31,22.60
2016,07,02,13,32,22.60
2016,07,02,13,33,22.50
2016,07,02,13,34,22.60
2016,07,02,13,35,22.60
2016,07,02,13,36,22.60
2016,07,02,13,37,22.60
2016,07,02,13,38,22.60
2016,07,02,13,39,22.60
2016,07,02,13,40,22.50
2016,07,02,13,41,22.50
2016,07,02,13,42,22.50
2016,07,02,13,43,22.50
2016,07,02,13,44,22.50
2016,07,02,13,45,22.50
2016,07,02,13,46,22.60
2016,07,02,13,47,22.70
2016,07,02,13,48,22.70
2016,07,02,13,49,22.70
2016,07,02,13,50,22.70
2016,07,02,13,51,22.60
2016,07,02,13,52,22.60
2016,07,02,13,53,22.60
2016,07,02,13,54,22.60
2016,07,02,13,55,22.60
2016,07,02,13,56,22.60
2016,07,02,13,57,22.50
2016,07,02,13,58,22.40
2016,07,02,13,59,22.30
2016,07,02,14,00,22.20
2016,07,02,14,01,22.20
2016,07,02,14,02,22.20
2016,07,02,14,03,22.10
2016,07,02,14,04,22.10
2016,07,02,14,05,22.10
2016,07,02,14,06,22.10
2016,07,02,14,07,22.10
2016,07,02,14,08,22.10
2016,07,02,14,09,22.00
2016,07,02,14,10,22.00
2016,07,02,14,11,22.00
2016,07,02,14,12,22.00
2016,07,02,14,13,22.00
2016,07,02,14,14,21.90
2016,07,02,14,15,21.90
2016,07,02,14,16,22.00
2016,07,02,14,17,22.10
2016,07,02,14,18,22.20
2016,07,02,14,19,22.20
2016,07,02,14,20,22.30
2016,07,02,14,21,22.40
2016,07,02,14,22,22.40
2016,07,02,14,23,22.50
2016,07,02,14,24,22.60
2016,07,02,14,25,22.60
2016,07,02,14,26,22.70
2016,07,02,14,27,22.70
2016,07,02,14,28,22.80
2016,07,02,14,29,22.80
2016,07,02,14,30,22.80
2016,07,02,14,31,22.80
2016,07,02,14,32,22.80
2016,07,02,14,33,22.80
2016,07,02,14,34,22.80
2016,07,02,14,35,22.70
2016,07,02,14,36,22.70
2016,07,02,14,37,22.70
2016,07,02,14,38,22.70
2016,07,02,14,39,22.70
2016,07,02,14,40,22.70
2016,07,02,14,41,22.70
2016,07,02,14,42,22.70
2016,07,02,14,43,22.60
2016,07,02,14,44,22.60
2016,07,02,14,45,22.60
2016,07,02,14,46,22.70
2016,07,02,14,47,22.70
2016,07,02,14,48,22.80
2016,07,02,14,49,22.90
2016,07,02,14,50,23.00
2016,07,02,14,51,23.10
2016,07,02,14,52,23.10
2016,07,02,14,53,23.20
2016,07,02,14,54,23.20
2016,07,02,14,55,23.20
2016,07,02,14,56,23.20
2016,07,02,14,57,23.20
2016,07,02,14,58,23.10
2016,07,02,14,59,22.90
2016,07,02,15,00,22.90
2016,07,02,15,01,22.80
2016,07,02,15,02,22.80
2016,07,02,15,03,22.80
2016,07,02,15,04,22.80
2016,07,02,15,05,22.80
2016,07,02,15,06,22.70
2016,07,02,15,07,22.70
2016,07,02,15,08,22.70
2016,07,02,15,09,22.70
2016,07,02,15,10,22.80
2016,07,02,15,11,22.80
2016,07,02,15,12,22.80
2016,07,02,15,13,22.70
2016,07,02,15,14,22.70
2016,07,02,15,15,22.70
2016,07,02,15,16,22.70
2016,07,02,15,17,22.70
2016,07,02,15,18,22.70
2016,07,02,15,19,22.70
2016,07,02,15,20,22.70
2016,07,02,15,21,22.70
2016,07,02,15,22,22.70
2016,07,02,15,23,22.70
2016,07,02,15,24,22.70
2016,07,02,15,25,22.70
2016,07,02,15,26,22.70
2016,07,02,15,27,22.70
2016,07,02,15,28,22.70
2016,07,02,15,29,22.60
2016,07,02,15,30,22.60
2016,07,02,15,31,22.60
2016,07,02,15,32,22.50
2016,07,02,15,33,22.50
2016,07,02,15,34,22.40
2016,07,02,15,35,22.40
2016,07,02,15,36,22.40
2016,07,02,15,37,22.40
2016,07,02,15,38,22.30
2016,07,02,15,39,22.30
2016,07,02,15,40,22.30
2016,07,02,15,41,22.30
2016,07,02,15,42,22.30
2016,07,02,15,43,22.20
2016,07,02,15,44,22.20
2016,07,02,15,45,22.20
2016,07,02,15,46,22.10
2016,07,02,15,47,22.00
2016,07,02,15,48,22.00
2016,07,02,15,49,21.90
2016,07,02,15,50,21.80
2016,07,02,15,51,21.80
2016,07,02,15,52,21.70
2016,07,02,15,53,21.70
2016,07,02,15,54,21.60
2016,07,02,15,55,21.60
2016,07,02,15,56,21.50
2016,07,02,15,57,21.40
2016,07,02,15,58,21.40
2016,07,02,15,59,21.30
2016,07,02,16,00,21.30
2016,07,02,16,01,21.30
2016,07,02,16,02,21.20
2016,07,02,16,03,21.20
2016,07,02,16,04,21.20
2016,07,02,16,05,21.10
2016,07,02,16,06,21.10
2016,07,02,16,07,21.00
2016,07,02,16,08,21.00
2016,07,02,16,09,20.90
2016,07,02,16,10,20.90
2016,07,02,16,11,20.90
2016,07,02,16,12,20.80
2016,07,02,16,13,20.80
2016,07,02,16,14,20.70
2016,07,02,16,15,20.70
2016,07,02,16,16,20.60
2016,07,02,16,17,20.60
2016,07,02,16,18,20.50
2016,07,02,16,19,20.50
2016,07,02,16,20,20.50
2016,07,02,16,21,20.50
2016,07,02,16,22,20.50
2016,07,02,16,23,20.50
2016,07,02,16,24,20.50
2016,07,02,16,25,20.50
2016,07,02,16,26,20.50
2016,07,02,16,27,20.50
2016,07,02,16,28,20.60
2016,07,02,16,29,20.60
2016,07,02,16,30,20.60
2016,07,02,16,31,20.60
2016,07,02,16,32,20.50
2016,07,02,16,33,20.50
2016,07,02,16,34,20.50
2016,07,02,16,35,20.50
2016,07,02,16,36,20.40
2016,07,02,16,37,20.40
2016,07,02,16,38,20.40
2016,07,02,16,39,20.40
2016,07,02,16,40,20.40
2016,07,02,16,41,20.40
2016,07,02,16,42,20.40
2016,07,02,16,43,20.40
2016,07,02,16,44,20.40
2016,07,02,16,45,20.40
2016,07,02,16,46,20.40
2016,07,02,16,47,20.30
2016,07,02,16,48,20.30
2016,07,02,16,49,20.30
2016,07,02,16,50,20.30
2016,07,02,16,51,20.30
2016,07,02,16,52,20.30
2016,07,02,16,53,20.30
2016,07,02,16,54,20.30
2016,07,02,16,55,20.30
2016,07,02,16,56,20.30
2016,07,02,16,57,20.30
2016,07,02,16,58,20.30
2016,07,02,16,59,20.30
2016,07,02,17,00,20.30
2016,07,02,17,01,20.30
2016,07,02,17,02,20.30
2016,07,02,17,03,20.30
2016,07,02,17,04,20.30
2016,07,02,17,05,20.30
2016,07,02,17,06,20.30
2016,07,02,17,07,20.30
2016,07,02,17,08,20.30
2016,07,02,17,09,20.30
2016,07,02,17,10,20.30
2016,07,02,17,11,20.30
2016,07,02,17,12,20.40
2016,07,02,17,13,20.40
2016,07,02,17,14,20.40
2016,07,02,17,15,20.40
2016,07,02,17,16,20.40
2016,07,02,17,17,20.40
2016,07,02,17,18,20.40
2016,07,02,17,19,20.40